COSMOS 1140

Satellite information

Favourite Embed

Satellite Type and Status

PAYLOADIN ORBIT

Key statistics

Satellite COSMOS 1140 at a glance.

Uptime

16646

Days in orbit

Revolutions

≈ 14.4

Per day

Orbit

LEO

Low Earth Orbit

Inclination

74.1

Latest

Satellite identification and parameters

Extended collection of information and parameters for COSMOS 1140.

Object identification

Identified? True

Debris? False

Object name: COSMOS 1140

International designator: 1979-089A

Object number (NORAD): 11573

Object ID (CCSDS): 11573

Country: COMMONWEALTH OF INDEPENDENT STATES (CIS)

Current information (Y/N): Y

RCS size: LARGE

Orbital parameters

Period: 100.177 minutes

Inclination: 74.0656 deg

SMA: 7145.072 km

Apoapsis: 778.93 km

Periapsis: 754.944 km

RAAN: 91.9347 deg

Eccentricy: 0.0016785

Argument of periapsis: 295.1738 deg

Mean anomaly: 64.7674 deg

Mean motion: 14.37450441 rev/day

Mean motion (dot): 0.00000269 rev/day2

B* drag term: 0.000098516 1/REarth

Two-line elements (TLE)

Creation date: May 8, 2025, 3:01 a.m.

Reference frame: TEME

Reference center: EARTH

Epoch: May 7, 2025, 8:49 a.m. UTC

TLE line 0: 0 COSMOS 1140

TLE line 1: 1 11573U 79089A 25127.36759258 .00000269 00000-0 98516-4 0 9992

TLE line 2: 2 11573 74.0656 91.9347 0016785 295.1738 64.7674 14.37450441386545

Live tracking on map

Real-time ground track for satellite COSMOS 1140.

In-orbit conjunctions

A list of the most updated potential collisions computed for object COSMOS 1140.

Target Orbit TCA Probability of collision Miss distance Type
NOAA 17 DEB SSO 2025-02-23 15:50:53 0.000183164 284.0 (m) DEBRIS
CZ-6A DEB SSO 2025-01-23 13:56:19 0.000201175 428.0 (m) DEBRIS
COSMOS 2251 DEB LEO 2024-11-15 21:51:03 0.0003422682 296.0 (m) DEBRIS
NOAA 17 DEB SSO 2024-06-19 05:10:04 0.0004347242 161.0 (m) DEBRIS

Associated space launch

Military communications satellite

COSMOS 1140 was lifted into orbit during the mission ‘Kosmos-3M | Strela-2M 22’, on board a Kosmos-3M space rocket.

The launch took place on Oct. 11, 1979, 4:36 p.m. from 132/2.

For more information about the launch, click the button.

Launch to space Kosmos-3M | Strela-2M 22
Kosmos-3M | Strela-2M 22

Agency: N/A

Status: Launch Successful

Launch date: Oct. 11, 1979, 4:36 p.m. UTC

Rocket: Kosmos-3M

Launch pad: 132/2

Location: Plesetsk Cosmodrome, Russian Federation

...

Latest news about this satellite

There are no fresh news available about this satellite. Check back as we update our databases every day.


Newsletter sign-up

Weekly statistics, charts and insights to help you stay on top of the space industry.